Location: Angwan Shehu
(11.2514°N, 7.4613°E)
Time: 15:36:09
(UTC+00:00)

X-37B - Visible Passes

Search period start: 08 March 2021 00:00
Search period end: 18 March 2021 00:00
Orbit: 383 x 391 km, 45.0° (Epoch: 27 February)

Date Brightness Start Highest point End Pass type
(mag) Time Alt. Az. Time Alt. Az. Time Alt. Az.
08 Mar 2.2 04:08:17 32° ENE 04:08:17 32° ENE 04:10:49 10° ESE visible
08 Mar 3.6 18:54:56 10° WNW 18:56:16 12° NW 18:57:36 10° NNW visible
09 Mar 1.8 04:45:54 24° SW 04:46:04 24° SW 04:48:41 10° S visible
